Theta_e
331 329 327 327 324 324 322 323 324 325 326 329 330 329 328 324 323 322 319 317 317 326 328 329 330 330 330 330 329 331 333 333 333
333 331 328 327 325 325 325 326 328 328 329 330 329 330 329 328 326 325 324 323 319 325 328 330 327 330 330 328 328 329 328 329 329
334 333 330 329 327 326 325 326 327 328 329 329 329 327 325 324 325 326 326 324 322 325 328 329 331 329 328 327 328 328 329 329 329
334 334 332 329 327 326 325 324 326 328 329 329 328 327 325 325 326 327 327 327 325 329 329 330 330 331 331 330 329 329 328 328 329
329 331 329 326 326 326 326 327 329 329 329 329 329 329 329 328 328 328 328 328 327 329 332 332 332 330 330 330 331 331 331 329 328
325 326 326 327 327 328 329 329 330 330 330 330 330 330 330 329 329 328 327 328 331 333 334 333 333 333 330 328 328 330 332 332 331
328 328 327 327 328 328 329 330 330 331 330 329 329 326 325 325 322 320 320 325 328 329 328 329 330 332 332 330 330 330 331 333 332
327 328 327 327 328 328 330 330 329 327 325 322 319 319 319 317 315 313 314 318 322 322 323 325 328 330 332 331 331 332 332 332 332
327 327 328 331 331 330 328 326 321 318 318 317 315 313 311 311 310 310 309 310 316 318 320 322 322 324 326 327 328 327 327 328 329
330 330 329 329 326 322 319 317 317 314 312 309 308 307 305 305 306 306 304 305 306 312 316 315 319 318 318 319 319 320 320 320 320
329 326 322 320 316 314 313 312 309 307 306 304 302 301 299 301 305 302 301 302 301 305 308 312 310 310 310 311 313 314 314 313 313
325 323 321 314 313 310 308 305 303 302 300 300 299 299 299 304 301 299 298 299 296 299 305 304 303 303 304 307 308 309 309 310 310
325 320 316 309 308 305 303 301 299 298 297 297 298 297 299 301 299 297 297 296 296 298 298 296 297 299 301 302 303 305 306 306 305
320 311 306 304 303 301 299 297 296 296 296 296 297 297 298 299 298 295 296 294 296 295 295 295 293 295 298 299 301 303 303 302 302
307 304 302 301 300 298 296 295 295 296 293 294 295 297 298 299 297 294 296 293 295 293 293 293 291 291 294 296 298 299 299 299 300
303 302 301 299 297 295 294 294 293 294 293 294 294 296 297 296 296 293 294 292 294 292 293 290 291 290 292 293 294 295 296 297 298
302 300 298 296 295 294 293 293 292 292 293 293 293 292 293 296 293 293 292 293 292 291 290 290 290 290 291 291 292 293 293 295 296
300 298 297 295 293 293 292 292 291 291 292 293 291 289 290 290 292 292 292 291 291 290 289 289 289 290 290 289 290 291 292 293 294
297 296 295 293 293 292 291 291 290 290 290 290 290 291 291 289 289 290 290 290 289 288 288 289 289 289 289 289 290 291 291 292 294
295 294 293 292 292 291 291 290 290 290 289 289 289 289 288 289 288 288 288 288 287 287 288 288 288 288 288 289 289 289 290 291 293
Wind_Speed
9 5 3 2 4 5 5 3 2 2 4 5 6 7 7 8 10 10 10 10 10 9 8 9 10 11 9 10 11 12 11 12 12
11 8 5 2 1 2 3 2 3 4 5 6 6 7 9 11 11 11 12 11 10 10 10 10 12 13 12 11 12 14 14 16 17
7 8 4 2 2 1 2 4 5 6 7 7 7 8 9 11 12 12 12 10 8 9 11 12 12 13 14 14 14 15 16 17 17
6 6 5 4 3 4 5 6 6 6 7 7 7 8 9 11 12 13 13 12 11 10 11 12 14 14 15 15 15 16 17 18 18
4 6 4 4 5 5 6 5 6 7 8 9 10 11 12 13 14 15 16 16 15 14 14 14 15 15 17 18 17 17 17 19 19
5 5 3 3 4 4 5 7 7 9 11 12 13 13 14 14 14 13 14 14 15 16 18 19 18 20 21 21 22 19 20 20 21
5 3 3 4 6 6 8 10 11 9 8 9 8 8 9 9 9 10 11 11 11 10 12 13 13 14 17 20 22 23 23 23 23
5 5 4 6 9 9 8 5 6 6 4 5 6 6 6 7 8 9 10 11 11 11 12 13 14 12 13 14 17 20 23 25 25
3 2 2 2 2 1 1 2 3 4 5 6 7 8 9 9 10 9 9 10 11 12 12 13 14 13 13 12 11 14 14 13 13
5 3 4 3 4 2 2 3 6 8 8 9 10 10 11 11 8 7 8 8 8 12 12 14 12 14 14 14 14 14 14 14 14
7 5 6 4 2 4 6 7 8 10 11 12 12 12 13 8 5 9 10 10 11 12 14 13 14 16 16 16 15 15 15 16 17
4 6 3 4 5 5 6 8 9 11 13 13 12 13 12 4 7 11 11 12 14 12 13 15 16 18 18 16 17 18 18 17 17
4 4 4 4 5 7 9 11 11 13 16 16 14 16 8 1 7 14 13 14 12 12 11 14 17 19 17 18 19 18 18 19 21
4 5 6 5 7 9 9 10 11 14 18 18 16 18 7 3 6 17 13 15 12 14 15 17 22 20 17 19 16 17 18 21 22
8 7 7 7 8 9 10 10 11 11 19 18 19 14 6 5 6 21 10 17 13 19 19 20 27 23 20 18 17 20 22 22 23
8 8 7 8 9 10 11 10 12 12 20 11 19 7 7 10 9 23 14 24 14 22 17 31 26 26 23 20 23 24 22 24 22
9 8 8 9 9 9 10 12 11 11 16 10 4 4 7 3 24 16 22 11 22 22 31 27 26 25 22 24 24 21 25 23 24
8 7 8 8 8 8 9 11 12 10 10 8 7 3 3 8 5 13 9 23 14 26 30 29 27 23 25 30 24 25 23 25 31
7 6 6 6 6 6 8 9 10 9 8 7 8 5 9 3 5 5 23 14 26 28 29 29 24 26 28 27 23 21 27 31 30
6 5 5 5 6 6 6 7 9 9 8 9 8 8 14 10 5 10 9 27 26 28 27 25 31 27 29 24 24 27 30 28 29
Wind_Direction
180 203 209 99 72 70 77 75 13 324 307 311 316 314 313 312 313 317 318 305 291 286 283 273 259 264 273 270 272 271 271 269 263
201 206 204 171 67 57 41 11 318 312 300 296 299 296 298 302 311 315 312 310 299 281 273 275 267 264 271 279 268 265 270 270 272
189 198 201 221 254 293 330 320 306 306 301 299 293 292 297 302 309 316 321 323 314 286 274 273 274 264 268 269 267 270 272 272 269
178 208 229 251 277 289 315 322 317 315 319 321 318 315 310 306 311 314 317 320 315 290 280 277 272 271 265 266 267 266 267 269 267
186 208 224 262 293 314 325 339 335 339 330 328 323 318 311 310 309 312 313 310 307 297 286 277 273 269 268 266 266 266 267 269 266
188 181 213 271 310 332 331 330 329 327 326 323 318 313 320 317 321 322 326 315 304 296 295 286 278 275 271 271 274 271 270 271 269
198 215 235 274 286 304 312 314 316 319 318 322 339 351 356 3 7 353 345 346 343 340 328 328 326 309 287 282 271 269 270 271 269
221 228 266 286 294 302 306 309 319 329 7 13 12 11 3 358 358 356 356 0 7 2 356 357 351 333 317 302 294 288 282 278 278
207 245 294 339 13 98 41 356 338 0 356 349 352 355 352 353 354 357 4 2 16 16 13 10 6 10 13 10 6 15 10 0 349
154 138 116 96 91 82 12 1 344 339 345 348 349 349 348 347 360 20 19 21 9 20 23 11 19 19 14 8 357 359 356 354 351
156 130 110 109 73 21 6 352 345 344 341 340 344 347 346 357 30 26 28 23 13 17 17 20 16 13 3 355 350 351 346 343 336
135 124 100 62 35 4 353 350 343 337 341 343 345 346 353 30 34 18 15 8 7 5 25 17 7 359 355 352 344 341 342 338 332
161 130 90 54 24 4 352 353 351 353 352 347 342 339 335 352 9 10 8 356 0 7 2 359 0 357 351 346 338 335 332 331 326
150 115 88 45 19 7 7 9 3 358 352 345 334 329 311 260 349 360 5 8 3 357 351 347 347 349 346 338 334 332 327 325 323
112 93 68 41 25 24 21 16 12 3 355 340 333 321 296 254 324 351 346 351 342 347 345 340 338 336 340 338 331 326 322 321 319
102 83 63 42 29 29 22 16 7 9 1 347 338 317 293 290 272 340 335 331 335 340 331 331 330 332 329 327 326 318 317 317 314
97 78 61 44 33 27 24 24 19 12 16 3 328 344 326 330 316 295 326 315 321 315 321 325 325 325 320 317 319 316 316 313 311
90 75 56 43 35 34 29 27 26 14 13 19 35 345 298 320 272 284 275 314 318 315 322 320 319 317 313 317 314 313 311 310 308
92 71 55 49 43 36 30 22 20 15 10 1 347 319 295 309 318 279 302 307 314 316 316 313 313 309 311 312 306 303 307 308 305
88 71 62 50 37 30 21 13 7 3 353 351 337 315 309 274 264 302 308 311 312 309 308 310 304 310 308 307 303 304 305 302 301